Terminal Aerodrome Forecast
Issued by NWS

Home | Current Version | Previous Version | Text Only | Print | Product List | Glossary On
Versions: 1 2 3 4 5 6 7 8 9 10 11 12
000
FTPQ31 PGUM 231135
TAFKMJ
TAF
PKMJ 231135Z 2312/2412 07008KT P6SM FEW015 SCT050=

USA.gov is the U.S. government's official web portal to all federal, state and local government web resources and services.